Time,TemperatureF,DewpointF,PressureIn,WindDirection,WindDirectionDegrees,WindSpeedMPH,WindSpeedGustMPH,Humidity,HourlyPrecipIn,Conditions,Clouds,dailyrainin,SoftwareType,DateUTC
2013-03-14 00:00:00,62.1,56.2,30.29,ESE,103,5.2,6.2,81,0.00,,---,0.00,VWS V14.01,2013-03-14 05:00:00,
2013-03-14 00:05:00,62.1,56.2,30.29,ESE,104,3.2,6.2,81,0.00,,---,0.00,VWS V14.01,2013-03-14 05:05:00,
2013-03-14 00:10:00,62.0,56.5,30.29,ESE,104,6.2,6.2,82,0.00,,---,0.00,VWS V14.01,2013-03-14 05:10:00,
2013-03-14 00:15:00,62.0,56.5,30.29,ESE,103,3.2,6.2,82,0.00,,---,0.00,VWS V14.01,2013-03-14 05:15:00,
2013-03-14 00:20:00,62.0,56.5,30.29,East,99,6.2,7.2,82,0.00,,---,0.00,VWS V14.01,2013-03-14 05:20:00,
2013-03-14 00:25:00,62.0,56.8,30.29,East,94,5.2,7.2,83,0.00,,---,0.00,VWS V14.01,2013-03-14 05:25:00,
2013-03-14 00:30:00,62.0,56.8,30.29,East,93,4.2,6.2,83,0.00,,---,0.00,VWS V14.01,2013-03-14 05:30:00,
2013-03-14 00:35:00,62.0,56.8,30.29,East,95,3.2,5.2,83,0.00,,---,0.00,VWS V14.01,2013-03-14 05:35:00,
2013-03-14 00:40:00,61.8,56.9,30.29,ESE,117,2.2,8.2,84,0.00,,---,0.00,VWS V14.01,2013-03-14 05:40:00,
2013-03-14 00:45:00,61.8,56.9,30.29,ESE,116,3.2,5.2,84,0.00,,---,0.00,VWS V14.01,2013-03-14 05:45:00,
2013-03-14 00:50:00,61.8,56.9,30.29,ESE,115,2.2,5.2,84,0.00,,---,0.00,VWS V14.01,2013-03-14 05:50:00,
2013-03-14 00:55:00,61.8,57.2,30.29,ESE,110,3.2,5.2,85,0.00,,---,0.00,VWS V14.01,2013-03-14 05:55:00,
2013-03-14 01:00:00,61.8,57.2,30.29,ESE,107,7.2,7.2,85,0.00,,---,0.00,VWS V14.01,2013-03-14 06:00:00,
2013-03-14 01:05:00,61.8,57.2,30.29,ESE,107,4.2,7.2,85,0.00,,---,0.00,VWS V14.01,2013-03-14 06:05:00,
2013-03-14 01:10:00,61.8,56.9,30.29,East,96,7.2,7.2,84,0.00,,---,0.00,VWS V14.01,2013-03-14 06:10:00,
2013-03-14 01:15:00,61.8,57.2,30.28,East,98,2.2,6.2,85,0.00,,---,0.00,VWS V14.01,2013-03-14 06:15:00,
2013-03-14 01:20:00,61.8,57.2,30.28,ESE,104,6.2,6.2,85,0.00,,---,0.00,VWS V14.01,2013-03-14 06:20:00,
2013-03-14 01:25:00,61.8,57.2,30.28,East,101,4.2,7.2,85,0.00,,---,0.00,VWS V14.01,2013-03-14 06:25:00,
2013-03-14 01:30:00,61.8,57.2,30.28,East,101,3.2,5.2,85,0.00,,---,0.00,VWS V14.01,2013-03-14 06:30:00,
2013-03-14 01:35:00,61.8,57.2,30.28,ESE,110,4.2,6.2,85,0.00,,---,0.00,VWS V14.01,2013-03-14 06:35:00,
2013-03-14 01:40:00,61.8,57.2,30.28,ESE,107,4.2,6.2,85,0.00,,---,0.00,VWS V14.01,2013-03-14 06:40:00,
2013-03-14 01:45:00,61.8,57.6,30.27,ESE,108,3.2,6.2,86,0.00,,---,0.00,VWS V14.01,2013-03-14 06:45:00,
2013-03-14 01:50:00,61.8,57.6,30.27,ESE,108,3.2,6.2,86,0.00,,---,0.00,VWS V14.01,2013-03-14 06:50:00,
2013-03-14 01:55:00,61.8,57.6,30.27,ESE,107,5.2,6.2,86,0.00,,---,0.00,VWS V14.01,2013-03-14 06:55:00,
2013-03-14 02:00:00,62.0,57.8,30.27,ESE,109,2.2,7.2,86,0.00,,---,0.00,VWS V14.01,2013-03-14 07:00:00,
2013-03-14 02:05:00,62.0,57.8,30.27,ESE,114,4.2,6.2,86,0.00,,---,0.00,VWS V14.01,2013-03-14 07:05:00,
2013-03-14 02:10:00,62.0,58.1,30.27,East,96,5.2,5.2,87,0.00,,---,0.00,VWS V14.01,2013-03-14 07:10:00,
2013-03-14 02:15:00,62.0,58.1,30.27,ESE,105,5.2,6.2,87,0.00,,---,0.00,VWS V14.01,2013-03-14 07:15:00,
2013-03-14 02:20:00,62.0,58.1,30.27,ESE,116,3.2,7.2,87,0.00,,---,0.00,VWS V14.01,2013-03-14 07:20:00,
2013-03-14 02:25:00,61.8,57.9,30.27,ESE,115,4.2,6.2,87,0.00,,---,0.00,VWS V14.01,2013-03-14 07:25:00,
2013-03-14 02:30:00,61.8,57.9,30.27,ESE,113,3.2,7.2,87,0.00,,---,0.00,VWS V14.01,2013-03-14 07:30:00,
2013-03-14 02:35:00,61.8,57.9,30.27,ESE,118,4.2,7.2,87,0.00,,---,0.00,VWS V14.01,2013-03-14 07:35:00,
2013-03-14 02:40:00,61.8,57.9,30.27,ESE,114,4.2,5.2,87,0.00,,---,0.00,VWS V14.01,2013-03-14 07:40:00,
2013-03-14 02:45:00,61.8,57.9,30.27,ESE,111,4.2,5.2,87,0.00,,---,0.00,VWS V14.01,2013-03-14 07:45:00,
2013-03-14 02:50:00,61.8,58.2,30.26,ESE,102,3.2,8.2,88,0.00,,---,0.00,VWS V14.01,2013-03-14 07:50:00,
2013-03-14 02:55:00,61.8,57.9,30.26,East,101,4.2,6.2,87,0.00,,---,0.00,VWS V14.01,2013-03-14 07:55:00,
2013-03-14 03:00:00,61.8,57.9,30.26,East,101,4.2,5.2,87,0.00,,---,0.00,VWS V14.01,2013-03-14 08:00:00,
2013-03-14 03:05:00,61.8,57.9,30.26,East,101,4.2,5.2,87,0.00,,---,0.00,VWS V14.01,2013-03-14 08:05:00,
2013-03-14 03:10:00,61.6,57.7,30.26,East,100,5.2,7.2,87,0.00,,---,0.00,VWS V14.01,2013-03-14 08:10:00,
2013-03-14 03:15:00,61.6,57.7,30.26,East,101,6.2,6.2,87,0.00,,---,0.00,VWS V14.01,2013-03-14 08:15:00,
2013-03-14 03:20:00,61.6,57.7,30.25,ESE,105,4.2,6.2,87,0.00,,---,0.00,VWS V14.01,2013-03-14 08:20:00,
2013-03-14 03:25:00,61.6,57.7,30.25,ESE,105,4.2,6.2,87,0.00,,---,0.00,VWS V14.01,2013-03-14 08:25:00,
2013-03-14 03:30:00,61.6,57.4,30.25,ESE,105,4.2,5.2,86,0.00,,---,0.00,VWS V14.01,2013-03-14 08:30:00,
2013-03-14 03:35:00,61.6,57.7,30.25,ESE,105,4.2,6.2,87,0.00,,---,0.00,VWS V14.01,2013-03-14 08:35:00,
2013-03-14 03:40:00,61.5,57.3,30.25,ESE,105,2.2,6.2,86,0.00,,---,0.00,VWS V14.01,2013-03-14 08:40:00,
2013-03-14 03:45:00,61.5,57.3,30.25,ESE,105,4.2,4.2,86,0.00,,---,0.00,VWS V14.01,2013-03-14 08:45:00,
2013-03-14 03:50:00,61.5,57.6,30.25,ESE,106,3.2,6.2,87,0.00,,---,0.00,VWS V14.01,2013-03-14 08:50:00,
2013-03-14 03:55:00,61.6,57.7,30.25,ESE,106,1.2,4.2,87,0.00,,---,0.00,VWS V14.01,2013-03-14 08:55:00,
2013-03-14 04:00:00,61.5,57.6,30.25,ESE,106,3.2,5.2,87,0.00,,---,0.00,VWS V14.01,2013-03-14 09:00:00,
2013-03-14 04:05:00,61.5,57.6,30.25,ESE,106,4.2,4.2,87,0.00,,---,0.00,VWS V14.01,2013-03-14 09:05:00,
2013-03-14 04:10:00,61.3,57.4,30.25,ESE,113,4.2,5.2,87,0.00,,---,0.00,VWS V14.01,2013-03-14 09:10:00,
2013-03-14 04:15:00,61.3,57.4,30.25,ESE,113,3.2,5.2,87,0.00,,---,0.00,VWS V14.01,2013-03-14 09:15:00,
2013-03-14 04:20:00,61.3,57.4,30.24,ESE,113,1.2,5.2,87,0.00,,---,0.00,VWS V14.01,2013-03-14 09:20:00,
2013-03-14 04:25:00,61.3,57.7,30.24,ESE,113,2.2,4.2,88,0.00,,---,0.00,VWS V14.01,2013-03-14 09:25:00,
2013-03-14 04:30:00,61.3,57.7,30.24,ESE,113,2.2,5.2,88,0.00,,---,0.00,VWS V14.01,2013-03-14 09:30:00,
2013-03-14 04:35:00,61.3,57.7,30.24,ESE,113,2.2,4.2,88,0.00,,---,0.00,VWS V14.01,2013-03-14 09:35:00,
2013-03-14 04:40:00,61.3,57.7,30.24,ESE,113,1.2,5.2,88,0.00,,---,0.00,VWS V14.01,2013-03-14 09:40:00,
2013-03-14 04:45:00,61.3,57.4,30.24,ESE,113,2.2,5.2,87,0.00,,---,0.00,VWS V14.01,2013-03-14 09:45:00,
2013-03-14 04:49:00,61.3,57.4,30.24,ESE,113,3.2,6.2,87,0.00,,---,0.00,VWS V14.01,2013-03-14 09:49:00,
2013-03-14 04:50:00,61.3,57.4,30.24,ESE,113,3.2,6.2,87,0.00,,---,0.00,VWS V14.01,2013-03-14 09:50:00,
2013-03-14 04:55:00,61.3,57.4,30.24,ESE,113,3.2,6.2,87,0.00,,---,0.00,VWS V14.01,2013-03-14 09:55:00,
2013-03-14 05:00:00,61.3,57.1,30.24,ESE,113,2.2,5.2,86,0.00,,---,0.00,VWS V14.01,2013-03-14 10:00:00,
2013-03-14 05:05:00,61.5,57.3,30.24,ESE,113,1.2,4.2,86,0.00,,---,0.00,VWS V14.01,2013-03-14 10:05:00,
2013-03-14 05:10:00,61.5,57.3,30.24,ESE,113,1.2,5.2,86,0.00,,---,0.00,VWS V14.01,2013-03-14 10:10:00,
2013-03-14 05:15:00,61.5,57.3,30.24,ESE,113,2.2,4.2,86,0.00,,---,0.00,VWS V14.01,2013-03-14 10:15:00,
2013-03-14 05:19:00,61.3,57.1,30.24,ESE,113,1.2,4.2,86,0.00,,---,0.00,VWS V14.01,2013-03-14 10:19:00,
2013-03-14 05:20:00,61.3,57.1,30.24,ESE,113,5.2,5.2,86,0.00,,---,0.00,VWS V14.01,2013-03-14 10:20:00,
2013-03-14 05:24:00,61.3,57.1,30.24,ESE,113,1.2,5.2,86,0.00,,---,0.00,VWS V14.01,2013-03-14 10:24:00,
2013-03-14 05:25:00,61.3,57.1,30.24,ESE,113,2.2,5.2,86,0.00,,---,0.00,VWS V14.01,2013-03-14 10:25:00,
2013-03-14 05:29:00,61.3,57.4,30.24,ESE,113,1.2,4.2,87,0.00,,---,0.00,VWS V14.01,2013-03-14 10:29:00,
2013-03-14 05:30:00,61.3,57.4,30.24,ESE,113,1.2,4.2,87,0.00,,---,0.00,VWS V14.01,2013-03-14 10:30:00,
2013-03-14 05:34:00,61.3,57.4,30.24,ESE,113,1.2,4.2,87,0.00,,---,0.00,VWS V14.01,2013-03-14 10:34:00,
2013-03-14 05:35:00,61.3,57.4,30.24,ESE,113,2.2,4.2,87,0.00,,---,0.00,VWS V14.01,2013-03-14 10:35:00,
2013-03-14 05:39:00,61.2,57.3,30.24,ESE,113,1.2,4.2,87,0.00,,---,0.00,VWS V14.01,2013-03-14 10:39:00,
2013-03-14 05:40:00,61.2,57.6,30.24,ESE,113,3.2,4.2,88,0.00,,---,0.00,VWS V14.01,2013-03-14 10:40:00,
2013-03-14 05:44:00,61.2,57.6,30.24,ESE,113,2.2,4.2,88,0.00,,---,0.00,VWS V14.01,2013-03-14 10:44:00,
2013-03-14 05:45:00,61.2,57.6,30.24,ESE,113,3.2,5.2,88,0.00,,---,0.00,VWS V14.01,2013-03-14 10:45:00,
2013-03-14 05:49:00,61.2,57.6,30.24,ESE,113,2.2,3.2,88,0.00,,---,0.00,VWS V14.01,2013-03-14 10:49:00,
2013-03-14 05:50:00,61.2,57.6,30.24,ESE,113,1.2,3.2,88,0.00,,---,0.00,VWS V14.01,2013-03-14 10:50:00,
2013-03-14 05:54:00,61.2,57.6,30.24,ESE,113,4.2,5.2,88,0.00,,---,0.00,VWS V14.01,2013-03-14 10:54:00,
2013-03-14 05:55:00,61.2,57.6,30.24,ESE,113,3.2,5.2,88,0.00,,---,0.00,VWS V14.01,2013-03-14 10:55:00,
2013-03-14 05:59:00,61.0,57.4,30.24,ESE,113,1.2,3.2,88,0.00,,---,0.00,VWS V14.01,2013-03-14 10:59:00,
2013-03-14 06:00:00,61.0,57.4,30.24,ESE,113,2.2,3.2,88,0.00,,---,0.00,VWS V14.01,2013-03-14 11:00:00,
2013-03-14 06:04:00,61.0,57.7,30.24,ESE,113,1.2,4.2,89,0.00,,---,0.00,VWS V14.01,2013-03-14 11:04:00,
2013-03-14 06:05:00,61.0,57.7,30.24,ESE,113,1.2,4.2,89,0.00,,---,0.00,VWS V14.01,2013-03-14 11:05:00,
2013-03-14 06:09:00,61.0,57.7,30.24,ESE,113,1.2,4.2,89,0.00,,---,0.00,VWS V14.01,2013-03-14 11:09:00,
2013-03-14 06:10:00,61.0,57.7,30.24,ESE,113,2.2,4.2,89,0.00,,---,0.00,VWS V14.01,2013-03-14 11:10:00,
2013-03-14 06:14:00,61.0,57.7,30.24,ESE,113,1.2,3.2,89,0.00,,---,0.00,VWS V14.01,2013-03-14 11:14:00,
2013-03-14 06:15:00,60.9,57.6,30.24,ESE,113,2.2,3.2,89,0.00,,---,0.00,VWS V14.01,2013-03-14 11:15:00,
2013-03-14 06:19:00,60.9,57.6,30.24,ESE,113,1.2,2.2,89,0.00,,---,0.00,VWS V14.01,2013-03-14 11:19:00,
2013-03-14 06:20:00,60.9,57.6,30.24,ESE,113,1.2,2.2,89,0.00,,---,0.00,VWS V14.01,2013-03-14 11:20:00,
2013-03-14 06:24:00,60.9,57.6,30.24,ESE,113,2.2,2.2,89,0.00,,---,0.00,VWS V14.01,2013-03-14 11:24:00,
2013-03-14 06:25:00,60.9,57.6,30.24,ESE,113,1.2,2.2,89,0.00,,---,0.00,VWS V14.01,2013-03-14 11:25:00,
2013-03-14 06:29:00,60.7,57.4,30.24,ESE,113,1.2,1.2,89,0.00,,---,0.00,VWS V14.01,2013-03-14 11:29:00,
2013-03-14 06:30:00,60.7,57.4,30.24,ESE,113,1.2,4.2,89,0.00,,---,0.00,VWS V14.01,2013-03-14 11:30:00,
2013-03-14 06:34:00,60.7,57.8,30.24,ESE,113,1.2,5.2,90,0.00,,---,0.00,VWS V14.01,2013-03-14 11:34:00,
2013-03-14 06:35:00,60.7,57.8,30.24,ESE,113,1.2,5.2,90,0.00,,---,0.00,VWS V14.01,2013-03-14 11:35:00,
2013-03-14 06:39:00,60.7,57.8,30.24,ESE,113,3.2,4.2,90,0.00,,---,0.00,VWS V14.01,2013-03-14 11:39:00,
2013-03-14 06:40:00,60.9,58.0,30.24,ESE,113,2.2,4.2,90,0.00,,---,0.00,VWS V14.01,2013-03-14 11:40:00,
2013-03-14 06:44:00,60.7,57.8,30.24,ESE,113,1.2,2.2,90,0.00,,---,0.00,VWS V14.01,2013-03-14 11:44:00,
2013-03-14 06:45:00,60.7,57.8,30.25,ESE,113,1.2,2.2,90,0.00,,---,0.00,VWS V14.01,2013-03-14 11:45:00,
2013-03-14 06:49:00,60.7,57.8,30.25,ESE,113,1.2,2.2,90,0.00,,---,0.00,VWS V14.01,2013-03-14 11:49:00,
2013-03-14 06:50:00,60.7,57.8,30.25,ESE,113,1.2,2.2,90,0.00,,---,0.00,VWS V14.01,2013-03-14 11:50:00,
2013-03-14 06:54:00,60.5,57.6,30.25,ESE,113,1.2,2.2,90,0.00,,---,0.00,VWS V14.01,2013-03-14 11:54:00,
2013-03-14 06:55:00,60.5,57.6,30.25,ESE,113,1.2,2.2,90,0.00,,---,0.00,VWS V14.01,2013-03-14 11:55:00,
2013-03-14 06:59:00,60.5,57.6,30.25,ESE,113,1.2,2.2,90,0.00,,---,0.00,VWS V14.01,2013-03-14 11:59:00,
2013-03-14 07:00:00,60.7,57.8,30.26,ESE,113,1.2,2.2,90,0.00,,---,0.00,VWS V14.01,2013-03-14 12:00:00,
2013-03-14 07:04:00,60.5,57.6,30.25,ESE,113,1.2,2.2,90,0.00,,---,0.00,VWS V14.01,2013-03-14 12:04:00,
2013-03-14 07:05:00,60.5,57.6,30.26,ESE,113,1.2,2.2,90,0.00,,---,0.00,VWS V14.01,2013-03-14 12:05:00,
2013-03-14 07:09:00,60.5,57.6,30.25,ESE,113,1.2,3.2,90,0.00,,---,0.00,VWS V14.01,2013-03-14 12:09:00,
2013-03-14 07:10:00,60.5,57.6,30.26,ESE,113,1.2,3.2,90,0.00,,---,0.00,VWS V14.01,2013-03-14 12:10:00,
2013-03-14 07:14:00,60.5,57.9,30.25,ESE,113,1.2,3.2,91,0.00,,---,0.00,VWS V14.01,2013-03-14 12:14:00,
2013-03-14 07:15:00,60.5,57.9,30.26,ESE,113,1.2,3.2,91,0.00,,---,0.00,VWS V14.01,2013-03-14 12:15:00,
2013-03-14 07:19:00,60.5,57.9,30.26,ESE,113,1.2,2.2,91,0.00,,---,0.00,VWS V14.01,2013-03-14 12:19:00,
2013-03-14 07:20:00,60.4,57.8,30.26,ESE,113,1.2,2.2,91,0.00,,---,0.00,VWS V14.01,2013-03-14 12:20:00,
2013-03-14 07:24:00,60.4,57.8,30.26,ESE,113,1.2,2.2,91,0.00,,---,0.00,VWS V14.01,2013-03-14 12:24:00,
2013-03-14 07:25:00,60.4,57.8,30.26,ESE,113,1.2,2.2,91,0.00,,---,0.00,VWS V14.01,2013-03-14 12:25:00,
2013-03-14 07:29:00,60.4,57.8,30.26,ESE,113,1.2,2.2,91,0.00,,---,0.00,VWS V14.01,2013-03-14 12:29:00,
2013-03-14 07:30:00,60.4,57.8,30.26,ESE,113,1.2,2.2,91,0.00,,---,0.00,VWS V14.01,2013-03-14 12:30:00,
2013-03-14 07:34:00,60.4,57.8,30.26,ESE,113,1.2,2.2,91,0.00,,---,0.00,VWS V14.01,2013-03-14 12:34:00,
2013-03-14 07:35:00,60.4,57.8,30.26,ESE,113,1.2,2.2,91,0.00,,---,0.00,VWS V14.01,2013-03-14 12:35:00,
2013-03-14 07:39:00,60.2,57.6,30.26,ESE,113,2.2,2.2,91,0.00,,---,0.00,VWS V14.01,2013-03-14 12:39:00,
2013-03-14 07:40:00,60.2,57.9,30.26,ESE,113,1.2,2.2,92,0.00,,---,0.00,VWS V14.01,2013-03-14 12:40:00,
2013-03-14 07:44:00,60.4,58.1,30.26,ESE,113,1.2,3.2,92,0.00,,---,0.00,VWS V14.01,2013-03-14 12:44:00,
2013-03-14 07:45:00,60.2,57.9,30.27,ESE,113,1.2,3.2,92,0.00,,---,0.00,VWS V14.01,2013-03-14 12:45:00,
2013-03-14 07:49:00,60.2,57.9,30.27,ESE,113,1.2,1.2,92,0.00,,---,0.00,VWS V14.01,2013-03-14 12:49:00,
2013-03-14 07:50:00,60.2,57.9,30.27,ESE,113,1.2,1.2,92,0.00,,---,0.00,VWS V14.01,2013-03-14 12:50:00,
2013-03-14 07:54:00,60.2,57.9,30.27,ESE,113,1.2,1.2,92,0.00,,---,0.00,VWS V14.01,2013-03-14 12:54:00,
2013-03-14 07:55:00,60.2,57.9,30.27,ESE,113,1.2,1.2,92,0.00,,---,0.00,VWS V14.01,2013-03-14 12:55:00,
2013-03-14 07:59:00,60.2,57.9,30.27,ESE,113,1.2,1.2,92,0.00,,---,0.00,VWS V14.01,2013-03-14 12:59:00,
2013-03-14 08:00:00,60.4,58.1,30.27,ESE,113,1.2,1.2,92,0.00,,---,0.00,VWS V14.01,2013-03-14 13:00:00,
2013-03-14 08:04:00,60.4,58.1,30.27,ESE,113,1.2,1.2,92,0.00,,---,0.00,VWS V14.01,2013-03-14 13:04:00,
2013-03-14 08:05:00,60.5,58.2,30.27,ESE,113,1.2,1.2,92,0.00,,---,0.00,VWS V14.01,2013-03-14 13:05:00,
2013-03-14 08:09:00,60.5,58.2,30.27,ESE,113,1.2,1.2,92,0.00,,---,0.00,VWS V14.01,2013-03-14 13:09:00,
2013-03-14 08:10:00,60.7,58.4,30.27,ESE,113,1.2,1.2,92,0.00,,---,0.00,VWS V14.01,2013-03-14 13:10:00,
2013-03-14 08:14:00,60.7,58.4,30.27,ESE,113,1.2,1.2,92,0.00,,---,0.00,VWS V14.01,2013-03-14 13:14:00,
2013-03-14 08:15:00,60.9,58.6,30.28,ESE,113,1.2,1.2,92,0.00,,---,0.00,VWS V14.01,2013-03-14 13:15:00,
2013-03-14 08:19:00,61.0,58.7,30.28,ESE,113,1.2,1.2,92,0.00,,---,0.00,VWS V14.01,2013-03-14 13:19:00,
2013-03-14 08:20:00,61.2,58.9,30.28,ESE,113,1.2,1.2,92,0.00,,---,0.00,VWS V14.01,2013-03-14 13:20:00,
2013-03-14 08:24:00,61.5,59.2,30.28,ESE,113,1.2,1.2,92,0.00,,---,0.00,VWS V14.01,2013-03-14 13:24:00,
2013-03-14 08:25:00,61.6,59.3,30.28,ESE,113,1.2,1.2,92,0.00,,---,0.00,VWS V14.01,2013-03-14 13:25:00,
2013-03-14 08:29:00,62.1,59.8,30.28,ESE,113,1.2,1.2,92,0.00,,---,0.00,VWS V14.01,2013-03-14 13:29:00,
2013-03-14 08:30:00,62.4,60.0,30.29,ESE,113,1.2,1.2,92,0.00,,---,0.00,VWS V14.01,2013-03-14 13:30:00,
2013-03-14 08:34:00,62.7,60.0,30.29,ESE,113,1.2,3.2,91,0.00,,---,0.00,VWS V14.01,2013-03-14 13:34:00,
2013-03-14 08:35:00,62.9,59.9,30.29,ESE,113,1.2,3.2,90,0.00,,---,0.00,VWS V14.01,2013-03-14 13:35:00,
2013-03-14 08:39:00,63.4,60.4,30.29,ESE,113,1.2,2.2,90,0.00,,---,0.00,VWS V14.01,2013-03-14 13:39:00,
2013-03-14 08:40:00,63.5,60.5,30.29,ESE,113,3.2,3.2,90,0.00,,---,0.00,VWS V14.01,2013-03-14 13:40:00,
2013-03-14 08:44:00,63.9,60.6,30.29,ESE,113,1.2,3.2,89,0.00,,---,0.00,VWS V14.01,2013-03-14 13:44:00,
2013-03-14 08:45:00,64.0,60.7,30.29,ESE,113,1.2,3.2,89,0.00,,---,0.00,VWS V14.01,2013-03-14 13:45:00,
2013-03-14 08:49:00,64.3,60.7,30.29,ESE,113,4.2,5.2,88,0.00,,---,0.00,VWS V14.01,2013-03-14 13:49:00,
2013-03-14 08:50:00,64.3,60.7,30.29,ESE,113,4.2,6.2,88,0.00,,---,0.00,VWS V14.01,2013-03-14 13:50:00,
2013-03-14 08:54:00,64.7,60.8,30.29,ESE,113,3.2,5.2,87,0.00,,---,0.00,VWS V14.01,2013-03-14 13:54:00,
2013-03-14 08:55:00,64.7,60.8,30.29,ESE,113,5.2,5.2,87,0.00,,---,0.00,VWS V14.01,2013-03-14 13:55:00,
2013-03-14 08:59:00,64.8,60.5,30.29,ESE,114,4.2,7.2,86,0.00,,---,0.00,VWS V14.01,2013-03-14 13:59:00,
2013-03-14 09:00:00,65.0,60.7,30.30,ESE,113,4.2,7.2,86,0.00,,---,0.00,VWS V14.01,2013-03-14 14:00:00,
2013-03-14 09:04:00,65.2,60.6,30.30,ESE,123,3.2,7.2,85,0.00,,---,0.00,VWS V14.01,2013-03-14 14:04:00,
2013-03-14 09:05:00,65.3,60.7,30.30,ESE,123,5.2,7.2,85,0.00,,---,0.00,VWS V14.01,2013-03-14 14:05:00,
2013-03-14 09:09:00,65.5,60.5,30.30,SE,131,4.2,10.2,84,0.00,,---,0.00,VWS V14.01,2013-03-14 14:09:00,
2013-03-14 09:10:00,65.6,60.6,30.30,SE,130,3.2,10.2,84,0.00,,---,0.00,VWS V14.01,2013-03-14 14:10:00,
2013-03-14 09:14:00,65.8,60.5,30.30,SE,130,3.2,9.2,83,0.00,,---,0.00,VWS V14.01,2013-03-14 14:14:00,
2013-03-14 09:15:00,66.1,61.1,30.30,ESE,111,4.2,9.2,84,0.00,,---,0.00,VWS V14.01,2013-03-14 14:15:00,
2013-03-14 09:19:00,66.3,60.7,30.30,SE,136,8.2,8.2,82,0.00,,---,0.00,VWS V14.01,2013-03-14 14:19:00,
2013-03-14 09:20:00,66.4,60.4,30.30,SE,126,4.2,8.2,81,0.00,,---,0.00,VWS V14.01,2013-03-14 14:20:00,
2013-03-14 09:24:00,66.4,60.4,30.30,SE,129,4.2,8.2,81,0.00,,---,0.00,VWS V14.01,2013-03-14 14:24:00,
2013-03-14 09:25:00,66.6,60.6,30.30,SE,130,5.2,8.2,81,0.00,,---,0.00,VWS V14.01,2013-03-14 14:25:00,
2013-03-14 09:29:00,66.3,60.0,30.30,SE,136,8.2,9.2,80,0.00,,---,0.00,VWS V14.01,2013-03-14 14:29:00,
2013-03-14 09:30:00,66.3,60.0,30.30,SE,134,8.2,9.2,80,0.00,,---,0.00,VWS V14.01,2013-03-14 14:30:00,
2013-03-14 09:34:00,66.1,60.1,30.30,SE,132,8.2,10.2,81,0.00,,---,0.00,VWS V14.01,2013-03-14 14:34:00,
2013-03-14 09:35:00,66.0,60.0,30.30,SE,135,5.2,10.2,81,0.00,,---,0.00,VWS V14.01,2013-03-14 14:35:00,
2013-03-14 09:39:00,66.3,60.3,30.30,SE,135,3.2,5.2,81,0.00,,---,0.00,VWS V14.01,2013-03-14 14:39:00,
2013-03-14 09:40:00,66.4,60.4,30.30,SE,135,1.2,5.2,81,0.00,,---,0.00,VWS V14.01,2013-03-14 14:40:00,
2013-03-14 09:44:00,66.8,60.4,30.30,SE,131,8.2,9.2,80,0.00,,---,0.00,VWS V14.01,2013-03-14 14:44:00,
2013-03-14 09:45:00,66.9,60.2,30.31,SSE,154,6.2,9.2,79,0.00,,---,0.00,VWS V14.01,2013-03-14 14:45:00,
2013-03-14 09:49:00,67.1,60.0,30.31,SE,132,6.2,9.2,78,0.00,,---,0.00,VWS V14.01,2013-03-14 14:49:00,
2013-03-14 09:50:00,67.3,59.8,30.31,SE,146,9.2,11.2,77,0.00,,---,0.00,VWS V14.01,2013-03-14 14:50:00,
2013-03-14 09:54:00,67.3,59.5,30.31,SSE,157,5.2,9.2,76,0.00,,---,0.00,VWS V14.01,2013-03-14 14:54:00,
2013-03-14 09:55:00,67.1,59.3,30.31,SSE,163,8.2,11.2,76,0.00,,---,0.00,VWS V14.01,2013-03-14 14:55:00,
2013-03-14 09:59:00,66.9,58.7,30.31,SSE,155,6.2,12.2,75,0.00,,---,0.00,VWS V14.01,2013-03-14 14:59:00,
2013-03-14 10:00:00,67.1,59.3,30.31,South,178,7.2,12.2,76,0.00,,---,0.00,VWS V14.01,2013-03-14 15:00:00,
2013-03-14 10:04:00,67.6,59.0,30.31,SSE,150,7.2,8.2,74,0.00,,---,0.00,VWS V14.01,2013-03-14 15:04:00,
2013-03-14 10:05:00,67.6,59.0,30.31,ESE,119,6.2,8.2,74,0.00,,---,0.00,VWS V14.01,2013-03-14 15:05:00,
2013-03-14 10:09:00,67.6,59.0,30.31,SSE,151,4.2,8.2,74,0.00,,---,0.00,VWS V14.01,2013-03-14 15:09:00,
2013-03-14 10:10:00,67.8,59.2,30.31,South,169,7.2,8.2,74,0.00,,---,0.00,VWS V14.01,2013-03-14 15:10:00,
2013-03-14 10:14:00,67.6,59.0,30.31,SSE,150,4.2,11.2,74,0.00,,---,0.00,VWS V14.01,2013-03-14 15:14:00,
2013-03-14 10:15:00,67.6,58.7,30.32,SE,145,4.2,11.2,73,0.00,,---,0.00,VWS V14.01,2013-03-14 15:15:00,
2013-03-14 10:19:00,67.6,58.7,30.32,SSE,160,5.2,9.2,73,0.00,,---,0.00,VWS V14.01,2013-03-14 15:19:00,
2013-03-14 10:20:00,67.6,58.7,30.32,SSE,159,3.2,9.2,73,0.00,,---,0.00,VWS V14.01,2013-03-14 15:20:00,
2013-03-14 10:24:00,67.8,58.8,30.32,South,169,5.2,8.2,73,0.00,,---,0.00,VWS V14.01,2013-03-14 15:24:00,
2013-03-14 10:25:00,67.9,58.9,30.32,SSE,163,4.2,8.2,73,0.00,,---,0.00,VWS V14.01,2013-03-14 15:25:00,
2013-03-14 10:29:00,67.9,58.5,30.32,South,172,5.2,11.2,72,0.00,,---,0.00,VWS V14.01,2013-03-14 15:29:00,
2013-03-14 10:30:00,67.8,58.5,30.32,SSE,157,4.2,12.2,72,0.00,,---,0.00,VWS V14.01,2013-03-14 15:30:00,
2013-03-14 10:34:00,67.6,57.9,30.32,SSE,147,8.2,13.2,71,0.00,,---,0.00,VWS V14.01,2013-03-14 15:34:00,
2013-03-14 10:35:00,67.4,58.1,30.32,SSE,161,6.2,13.2,72,0.00,,---,0.00,VWS V14.01,2013-03-14 15:35:00,
2013-03-14 10:39:00,67.6,58.3,30.32,SSE,167,5.2,11.2,72,0.00,,---,0.00,VWS V14.01,2013-03-14 15:39:00,
2013-03-14 10:40:00,67.8,58.1,30.32,South,169,6.2,11.2,71,0.00,,---,0.00,VWS V14.01,2013-03-14 15:40:00,
2013-03-14 10:44:00,68.4,58.6,30.32,South,182,6.2,12.2,71,0.00,,---,0.00,VWS V14.01,2013-03-14 15:44:00,
2013-03-14 10:45:00,69.1,59.3,30.32,SE,144,4.2,12.2,71,0.00,,---,0.00,VWS V14.01,2013-03-14 15:45:00,
2013-03-14 10:49:00,69.4,58.4,30.32,SE,144,10.2,12.2,68,0.00,,---,0.00,VWS V14.01,2013-03-14 15:49:00,
2013-03-14 10:50:00,69.6,58.2,30.32,SE,144,14.2,14.2,67,0.00,,---,0.00,VWS V14.01,2013-03-14 15:50:00,
2013-03-14 10:54:00,69.8,58.4,30.32,SE,143,14.2,14.2,67,0.00,,---,0.00,VWS V14.01,2013-03-14 15:54:00,
2013-03-14 10:55:00,69.8,58.4,30.32,SSE,150,6.2,14.2,67,0.00,,---,0.00,VWS V14.01,2013-03-14 15:55:00,
2013-03-14 10:59:00,69.9,58.5,30.32,SSE,156,9.2,14.2,67,0.00,,---,0.00,VWS V14.01,2013-03-14 15:59:00,
2013-03-14 11:00:00,69.9,58.5,30.32,SSE,150,13.2,14.2,67,0.00,,---,0.00,VWS V14.01,2013-03-14 16:00:00,
2013-03-14 11:04:00,70.3,58.4,30.32,ESE,121,5.2,13.2,66,0.00,,---,0.00,VWS V14.01,2013-03-14 16:04:00,
2013-03-14 11:05:00,70.3,58.4,30.32,SSE,153,7.2,13.2,66,0.00,,---,0.00,VWS V14.01,2013-03-14 16:05:00,
2013-03-14 11:09:00,70.8,58.5,30.32,SE,144,10.2,15.2,65,0.00,,---,0.00,VWS V14.01,2013-03-14 16:09:00,
2013-03-14 11:10:00,70.6,58.3,30.32,SSE,160,12.2,15.2,65,0.00,,---,0.00,VWS V14.01,2013-03-14 16:10:00,
2013-03-14 11:14:00,70.3,58.0,30.32,SE,144,8.2,16.2,65,0.00,,---,0.00,VWS V14.01,2013-03-14 16:14:00,
2013-03-14 11:15:00,70.4,57.7,30.32,SSE,168,4.2,16.2,64,0.00,,---,0.00,VWS V14.01,2013-03-14 16:15:00,
2013-03-14 11:19:00,70.9,58.1,30.32,SSE,158,12.2,14.2,64,0.00,,---,0.00,VWS V14.01,2013-03-14 16:19:00,
2013-03-14 11:20:00,70.9,58.1,30.32,South,176,6.2,14.2,64,0.00,,---,0.00,VWS V14.01,2013-03-14 16:20:00,
2013-03-14 11:24:00,70.9,58.1,30.32,SE,144,15.2,15.2,64,0.00,,---,0.00,VWS V14.01,2013-03-14 16:24:00,
2013-03-14 11:25:00,70.4,57.7,30.32,South,178,9.2,15.2,64,0.00,,---,0.00,VWS V14.01,2013-03-14 16:25:00,
2013-03-14 11:29:00,70.6,58.3,30.32,SSE,151,11.2,15.2,65,0.00,,---,0.00,VWS V14.01,2013-03-14 16:29:00,
2013-03-14 11:30:00,70.4,57.7,30.32,SSE,153,7.2,15.2,64,0.00,,---,0.00,VWS V14.01,2013-03-14 16:30:00,
2013-03-14 11:34:00,70.4,57.7,30.32,ESE,118,7.2,15.2,64,0.00,,---,0.00,VWS V14.01,2013-03-14 16:34:00,
2013-03-14 11:35:00,70.6,57.8,30.32,SSE,153,6.2,16.2,64,0.00,,---,0.00,VWS V14.01,2013-03-14 16:35:00,
2013-03-14 11:39:00,70.9,58.1,30.32,SE,142,4.2,14.2,64,0.00,,---,0.00,VWS V14.01,2013-03-14 16:39:00,
2013-03-14 11:40:00,71.5,58.7,30.32,SSE,164,13.2,16.2,64,0.00,,---,0.00,VWS V14.01,2013-03-14 16:40:00,
2013-03-14 11:44:00,71.3,58.9,30.32,SE,141,5.2,15.2,65,0.00,,---,0.00,VWS V14.01,2013-03-14 16:44:00,
2013-03-14 11:45:00,71.5,58.3,30.32,SSE,148,14.2,15.2,63,0.00,,---,0.00,VWS V14.01,2013-03-14 16:45:00,
2013-03-14 11:49:00,71.6,58.8,30.32,SSE,153,8.2,17.2,64,0.00,,---,0.00,VWS V14.01,2013-03-14 16:49:00,
2013-03-14 11:50:00,71.5,58.3,30.32,SE,127,12.2,18.2,63,0.00,,---,0.00,VWS V14.01,2013-03-14 16:50:00,
2013-03-14 11:54:00,71.3,58.1,30.32,SE,133,10.2,14.2,63,0.00,,---,0.00,VWS V14.01,2013-03-14 16:54:00,
2013-03-14 11:55:00,71.6,58.3,30.32,ESE,116,8.2,14.2,63,0.00,,---,0.00,VWS V14.01,2013-03-14 16:55:00,
2013-03-14 11:59:00,71.6,57.5,30.32,SE,141,14.2,17.2,61,0.00,,---,0.00,VWS V14.01,2013-03-14 16:59:00,
2013-03-14 12:00:00,71.5,58.3,30.32,SSE,153,12.2,17.2,63,0.00,,---,0.00,VWS V14.01,2013-03-14 17:00:00,
2013-03-14 12:04:00,71.6,57.9,30.32,SSE,158,6.2,15.2,62,0.00,,---,0.00,VWS V14.01,2013-03-14 17:04:00,
2013-03-14 12:05:00,72.0,58.3,30.32,SE,142,10.2,15.2,62,0.00,,---,0.00,VWS V14.01,2013-03-14 17:05:00,
2013-03-14 12:09:00,72.1,58.8,30.32,SE,144,10.2,15.2,63,0.00,,---,0.00,VWS V14.01,2013-03-14 17:09:00,
2013-03-14 12:10:00,72.1,58.8,30.32,SE,139,5.2,15.2,63,0.00,,---,0.00,VWS V14.01,2013-03-14 17:10:00,
2013-03-14 12:14:00,72.1,58.4,30.32,SSE,148,8.2,13.2,62,0.00,,---,0.00,VWS V14.01,2013-03-14 17:14:00,
2013-03-14 12:15:00,72.0,58.3,30.32,ESE,112,9.2,13.2,62,0.00,,---,0.00,VWS V14.01,2013-03-14 17:15:00,
2013-03-14 12:19:00,72.1,58.4,30.32,SSE,150,7.2,17.2,62,0.00,,---,0.00,VWS V14.01,2013-03-14 17:19:00,
2013-03-14 12:20:00,72.3,58.6,30.32,SE,143,9.2,17.2,62,0.00,,---,0.00,VWS V14.01,2013-03-14 17:20:00,
2013-03-14 12:24:00,72.5,58.8,30.32,SE,132,8.2,15.2,62,0.00,,---,0.00,VWS V14.01,2013-03-14 17:24:00,
2013-03-14 12:25:00,72.5,58.3,30.32,SE,142,10.2,15.2,61,0.00,,---,0.00,VWS V14.01,2013-03-14 17:25:00,
2013-03-14 12:29:00,72.1,57.5,30.32,SSE,150,11.2,18.2,60,0.00,,---,0.00,VWS V14.01,2013-03-14 17:29:00,
2013-03-14 12:30:00,72.1,57.5,30.32,SSE,163,10.2,18.2,60,0.00,,---,0.00,VWS V14.01,2013-03-14 17:30:00,
2013-03-14 12:34:00,72.3,57.2,30.32,SE,142,8.2,16.2,59,0.00,,---,0.00,VWS V14.01,2013-03-14 17:34:00,
2013-03-14 12:35:00,72.0,57.4,30.32,SSE,150,15.2,16.2,60,0.00,,---,0.00,VWS V14.01,2013-03-14 17:35:00,
2013-03-14 12:39:00,72.1,57.9,30.32,SE,135,13.2,17.2,61,0.00,,---,0.00,VWS V14.01,2013-03-14 17:39:00,
2013-03-14 12:40:00,72.3,57.7,30.32,SE,134,8.2,17.2,60,0.00,,---,0.00,VWS V14.01,2013-03-14 17:40:00,
2013-03-14 12:44:00,72.3,58.6,30.32,SSE,161,10.2,14.2,62,0.00,,---,0.00,VWS V14.01,2013-03-14 17:44:00,
2013-03-14 12:45:00,72.0,58.3,30.31,SE,133,6.2,15.2,62,0.00,,---,0.00,VWS V14.01,2013-03-14 17:45:00,
2013-03-14 12:49:00,72.5,58.3,30.31,SE,144,4.2,14.2,61,0.00,,---,0.00,VWS V14.01,2013-03-14 17:49:00,
2013-03-14 12:50:00,72.5,57.8,30.31,SSE,150,13.2,16.2,60,0.00,,---,0.00,VWS V14.01,2013-03-14 17:50:00,
2013-03-14 12:54:00,72.5,58.3,30.31,SSE,148,14.2,17.2,61,0.00,,---,0.00,VWS V14.01,2013-03-14 17:54:00,
2013-03-14 12:55:00,72.3,57.7,30.31,SE,143,8.2,17.2,60,0.00,,---,0.00,VWS V14.01,2013-03-14 17:55:00,
2013-03-14 12:59:00,72.7,58.0,30.31,South,180,7.2,13.2,60,0.00,,---,0.00,VWS V14.01,2013-03-14 17:59:00,
2013-03-14 13:00:00,72.5,57.4,30.30,SSE,157,11.2,14.2,59,0.00,,---,0.00,VWS V14.01,2013-03-14 18:00:00,
2013-03-14 13:04:00,72.1,57.9,30.30,SE,146,7.2,15.2,61,0.00,,---,0.00,VWS V14.01,2013-03-14 18:04:00,
2013-03-14 13:05:00,72.1,57.5,30.30,SSE,165,8.2,15.2,60,0.00,,---,0.00,VWS V14.01,2013-03-14 18:05:00,
2013-03-14 13:09:00,72.3,58.6,30.30,ESE,121,7.2,13.2,62,0.00,,---,0.00,VWS V14.01,2013-03-14 18:09:00,
2013-03-14 13:10:00,72.7,58.9,30.30,SSE,155,9.2,17.2,62,0.00,,---,0.00,VWS V14.01,2013-03-14 18:10:00,
2013-03-14 13:14:00,72.7,58.0,30.30,SE,146,6.2,13.2,60,0.00,,---,0.00,VWS V14.01,2013-03-14 18:14:00,
2013-03-14 13:15:00,72.5,57.8,30.30,SE,130,12.2,17.2,60,0.00,,---,0.00,VWS V14.01,2013-03-14 18:15:00,
2013-03-14 13:19:00,72.3,58.1,30.30,SE,136,7.2,15.2,61,0.00,,---,0.00,VWS V14.01,2013-03-14 18:19:00,
2013-03-14 13:20:00,72.3,57.7,30.30,ESE,117,11.2,16.2,60,0.00,,---,0.00,VWS V14.01,2013-03-14 18:20:00,
2013-03-14 13:24:00,72.8,58.6,30.30,ESE,121,10.2,14.2,61,0.00,,---,0.00,VWS V14.01,2013-03-14 18:24:00,
2013-03-14 13:25:00,73.2,59.0,30.30,ESE,117,5.2,14.2,61,0.00,,---,0.00,VWS V14.01,2013-03-14 18:25:00,
2013-03-14 13:29:00,73.7,58.5,30.30,SE,142,7.2,14.2,59,0.00,,---,0.00,VWS V14.01,2013-03-14 18:29:00,
2013-03-14 13:30:00,73.7,58.5,30.29,ESE,120,3.2,14.2,59,0.00,,---,0.00,VWS V14.01,2013-03-14 18:30:00,
2013-03-14 13:34:00,74.2,59.0,30.29,SSE,155,5.2,13.2,59,0.00,,---,0.00,VWS V14.01,2013-03-14 18:34:00,
2013-03-14 13:35:00,73.9,58.2,30.29,SE,142,8.2,13.2,58,0.00,,---,0.00,VWS V14.01,2013-03-14 18:35:00,
2013-03-14 13:39:00,73.9,58.7,30.29,SSE,150,7.2,12.2,59,0.00,,---,0.00,VWS V14.01,2013-03-14 18:39:00,
2013-03-14 13:40:00,73.9,58.2,30.29,SSE,154,8.2,15.2,58,0.00,,---,0.00,VWS V14.01,2013-03-14 18:40:00,
2013-03-14 13:44:00,73.7,59.0,30.29,ESE,114,12.2,15.2,60,0.00,,---,0.00,VWS V14.01,2013-03-14 18:44:00,
2013-03-14 13:45:00,73.2,58.0,30.29,SE,131,9.2,17.2,59,0.00,,---,0.00,VWS V14.01,2013-03-14 18:45:00,
2013-03-14 13:49:00,73.0,58.3,30.29,SE,136,10.2,15.2,60,0.00,,---,0.00,VWS V14.01,2013-03-14 18:49:00,
2013-03-14 13:50:00,73.0,58.8,30.29,SSE,150,10.2,15.2,61,0.00,,---,0.00,VWS V14.01,2013-03-14 18:50:00,
2013-03-14 13:54:00,73.5,58.3,30.29,ESE,123,8.2,13.2,59,0.00,,---,0.00,VWS V14.01,2013-03-14 18:54:00,
2013-03-14 13:55:00,73.7,58.5,30.29,SSE,167,15.2,17.2,59,0.00,,---,0.00,VWS V14.01,2013-03-14 18:55:00,
2013-03-14 13:59:00,73.2,58.0,30.29,SE,138,11.2,15.2,59,0.00,,---,0.00,VWS V14.01,2013-03-14 18:59:00,
2013-03-14 14:00:00,73.2,58.5,30.28,SE,139,12.2,15.2,60,0.00,,---,0.00,VWS V14.01,2013-03-14 19:00:00,
2013-03-14 14:04:00,73.2,59.0,30.28,SE,128,8.2,14.2,61,0.00,,---,0.00,VWS V14.01,2013-03-14 19:04:00,
2013-03-14 14:05:00,73.2,58.0,30.28,SE,141,7.2,14.2,59,0.00,,---,0.00,VWS V14.01,2013-03-14 19:05:00,
2013-03-14 14:09:00,73.0,58.3,30.28,ESE,116,13.2,15.2,60,0.00,,---,0.00,VWS V14.01,2013-03-14 19:09:00,
2013-03-14 14:10:00,73.0,58.3,30.28,SE,126,8.2,15.2,60,0.00,,---,0.00,VWS V14.01,2013-03-14 19:10:00,
2013-03-14 14:14:00,73.2,58.5,30.28,East,97,8.2,15.2,60,0.00,,---,0.00,VWS V14.01,2013-03-14 19:14:00,
2013-03-14 14:15:00,73.5,58.8,30.27,SE,132,9.2,15.2,60,0.00,,---,0.00,VWS V14.01,2013-03-14 19:15:00,
2013-03-14 14:19:00,73.2,58.5,30.27,SE,129,5.2,15.2,60,0.00,,---,0.00,VWS V14.01,2013-03-14 19:19:00,
2013-03-14 14:20:00,73.5,58.8,30.27,SE,130,7.2,15.2,60,0.00,,---,0.00,VWS V14.01,2013-03-14 19:20:00,
2013-03-14 14:24:00,73.9,58.7,30.27,SE,141,8.2,15.2,59,0.00,,---,0.00,VWS V14.01,2013-03-14 19:24:00,
2013-03-14 14:25:00,73.9,58.2,30.27,SSE,155,13.2,15.2,58,0.00,,---,0.00,VWS V14.01,2013-03-14 19:25:00,
2013-03-14 14:29:00,73.5,58.8,30.27,ESE,122,7.2,15.2,60,0.00,,---,0.00,VWS V14.01,2013-03-14 19:29:00,
2013-03-14 14:30:00,73.5,58.3,30.27,East,93,12.2,15.2,59,0.00,,---,0.00,VWS V14.01,2013-03-14 19:30:00,
2013-03-14 14:34:00,73.5,58.8,30.27,SE,126,12.2,12.2,60,0.00,,---,0.00,VWS V14.01,2013-03-14 19:34:00,
2013-03-14 14:35:00,73.7,59.0,30.27,ESE,115,10.2,14.2,60,0.00,,---,0.00,VWS V14.01,2013-03-14 19:35:00,
2013-03-14 14:39:00,73.3,58.1,30.27,ESE,104,11.2,18.2,59,0.00,,---,0.00,VWS V14.01,2013-03-14 19:39:00,
2013-03-14 14:40:00,73.0,58.3,30.27,SE,138,11.2,18.2,60,0.00,,---,0.00,VWS V14.01,2013-03-14 19:40:00,
2013-03-14 14:44:00,73.2,58.5,30.27,ESE,111,6.2,14.2,60,0.00,,---,0.00,VWS V14.01,2013-03-14 19:44:00,
2013-03-14 14:45:00,73.2,58.5,30.26,SE,145,15.2,15.2,60,0.00,,---,0.00,VWS V14.01,2013-03-14 19:45:00,
2013-03-14 14:49:00,73.3,58.6,30.26,SE,140,15.2,16.2,60,0.00,,---,0.00,VWS V14.01,2013-03-14 19:49:00,
2013-03-14 14:50:00,73.0,58.8,30.26,SE,126,17.2,17.2,61,0.00,,---,0.00,VWS V14.01,2013-03-14 19:50:00,
2013-03-14 14:54:00,72.5,59.2,30.26,SE,126,10.2,17.2,63,0.00,,---,0.00,VWS V14.01,2013-03-14 19:54:00,
2013-03-14 14:55:00,72.7,58.9,30.26,SE,130,8.2,17.2,62,0.00,,---,0.00,VWS V14.01,2013-03-14 19:55:00,
2013-03-14 14:59:00,73.3,58.6,30.26,SE,126,11.2,15.2,60,0.00,,---,0.00,VWS V14.01,2013-03-14 19:59:00,
2013-03-14 15:00:00,73.2,58.5,30.26,SE,132,10.2,16.2,60,0.00,,---,0.00,VWS V14.01,2013-03-14 20:00:00,
2013-03-14 15:04:00,73.0,58.8,30.25,ESE,123,12.2,16.2,61,0.00,,---,0.00,VWS V14.01,2013-03-14 20:04:00,
2013-03-14 15:05:00,72.8,58.6,30.26,SSE,148,7.2,17.2,61,0.00,,---,0.00,VWS V14.01,2013-03-14 20:05:00,
2013-03-14 15:09:00,73.2,58.5,30.25,SE,132,8.2,14.2,60,0.00,,---,0.00,VWS V14.01,2013-03-14 20:09:00,
2013-03-14 15:10:00,73.2,59.0,30.26,ESE,117,10.2,16.2,61,0.00,,---,0.00,VWS V14.01,2013-03-14 20:10:00,
2013-03-14 15:14:00,74.0,59.2,30.25,ESE,120,14.2,15.2,60,0.00,,---,0.00,VWS V14.01,2013-03-14 20:14:00,
2013-03-14 15:15:00,74.2,59.0,30.25,SSE,161,10.2,16.2,59,0.00,,---,0.00,VWS V14.01,2013-03-14 20:15:00,
2013-03-14 15:19:00,73.7,59.0,30.25,SSE,168,5.2,14.2,60,0.00,,---,0.00,VWS V14.01,2013-03-14 20:19:00,
2013-03-14 15:20:00,73.5,58.8,30.25,ESE,123,12.2,15.2,60,0.00,,---,0.00,VWS V14.01,2013-03-14 20:20:00,
2013-03-14 15:24:00,73.5,59.2,30.25,SE,138,11.2,17.2,61,0.00,,---,0.00,VWS V14.01,2013-03-14 20:24:00,
2013-03-14 15:25:00,73.3,58.6,30.25,SSE,152,11.2,18.2,60,0.00,,---,0.00,VWS V14.01,2013-03-14 20:25:00,
2013-03-14 15:29:00,72.8,58.1,30.25,SE,140,17.2,17.2,60,0.00,,---,0.00,VWS V14.01,2013-03-14 20:29:00,
2013-03-14 15:30:00,72.8,58.6,30.24,SE,134,10.2,17.2,61,0.00,,---,0.00,VWS V14.01,2013-03-14 20:30:00,
2013-03-14 15:34:00,72.7,58.5,30.24,SSE,150,16.2,16.2,61,0.00,,---,0.00,VWS V14.01,2013-03-14 20:34:00,
2013-03-14 15:35:00,72.8,58.6,30.24,SE,128,10.2,17.2,61,0.00,,---,0.00,VWS V14.01,2013-03-14 20:35:00,
2013-03-14 15:39:00,72.8,58.1,30.24,SE,142,12.2,18.2,60,0.00,,---,0.00,VWS V14.01,2013-03-14 20:39:00,
2013-03-14 15:40:00,72.7,58.0,30.24,SE,130,12.2,18.2,60,0.00,,---,0.00,VWS V14.01,2013-03-14 20:40:00,
2013-03-14 15:44:00,72.5,58.3,30.24,SE,126,11.2,15.2,61,0.00,,---,0.00,VWS V14.01,2013-03-14 20:44:00,
2013-03-14 15:45:00,72.5,58.3,30.24,SE,146,8.2,16.2,61,0.00,,---,0.00,VWS V14.01,2013-03-14 20:45:00,
2013-03-14 15:49:00,72.7,58.0,30.24,SSE,153,13.2,15.2,60,0.00,,---,0.00,VWS V14.01,2013-03-14 20:49:00,
2013-03-14 15:50:00,72.7,58.0,30.24,SE,128,16.2,16.2,60,0.00,,---,0.00,VWS V14.01,2013-03-14 20:50:00,
2013-03-14 15:54:00,72.7,58.5,30.24,ESE,111,10.2,16.2,61,0.00,,---,0.00,VWS V14.01,2013-03-14 20:54:00,
2013-03-14 15:55:00,73.0,58.3,30.24,SE,140,13.2,17.2,60,0.00,,---,0.00,VWS V14.01,2013-03-14 20:55:00,
2013-03-14 15:59:00,73.0,57.8,30.24,SE,144,11.2,15.2,59,0.00,,---,0.00,VWS V14.01,2013-03-14 20:59:00,
2013-03-14 16:00:00,72.8,58.1,30.23,SSE,152,16.2,16.2,60,0.00,,---,0.00,VWS V14.01,2013-03-14 21:00:00,
2013-03-14 16:04:00,72.5,57.8,30.23,SSE,159,9.2,16.2,60,0.00,,---,0.00,VWS V14.01,2013-03-14 21:04:00,
2013-03-14 16:05:00,72.5,58.3,30.23,ESE,104,10.2,16.2,61,0.00,,---,0.00,VWS V14.01,2013-03-14 21:05:00,
2013-03-14 16:09:00,72.8,58.1,30.23,SE,138,4.2,19.2,60,0.00,,---,0.00,VWS V14.01,2013-03-14 21:09:00,
2013-03-14 16:10:00,72.8,57.7,30.23,SE,144,15.2,19.2,59,0.00,,---,0.00,VWS V14.01,2013-03-14 21:10:00,
2013-03-14 16:14:00,72.3,57.7,30.23,East,83,7.2,15.2,60,0.00,,---,0.00,VWS V14.01,2013-03-14 21:14:00,
2013-03-14 16:15:00,72.3,57.7,30.23,SE,134,10.2,15.2,60,0.00,,---,0.00,VWS V14.01,2013-03-14 21:15:00,
2013-03-14 16:19:00,72.5,58.8,30.23,SE,136,10.2,14.2,62,0.00,,---,0.00,VWS V14.01,2013-03-14 21:19:00,
2013-03-14 16:20:00,72.7,58.5,30.23,SSE,158,8.2,14.2,61,0.00,,---,0.00,VWS V14.01,2013-03-14 21:20:00,
2013-03-14 16:24:00,72.8,59.0,30.23,SE,141,17.2,17.2,62,0.00,,---,0.00,VWS V14.01,2013-03-14 21:24:00,
2013-03-14 16:25:00,73.0,59.2,30.23,SE,130,11.2,17.2,62,0.00,,---,0.00,VWS V14.01,2013-03-14 21:25:00,
2013-03-14 16:29:00,73.0,59.7,30.23,ESE,119,14.2,15.2,63,0.00,,---,0.00,VWS V14.01,2013-03-14 21:29:00,
2013-03-14 16:30:00,73.0,59.2,30.23,SE,130,13.2,15.2,62,0.00,,---,0.00,VWS V14.01,2013-03-14 21:30:00,
2013-03-14 16:34:00,72.8,59.0,30.23,SSE,148,11.2,15.2,62,0.00,,---,0.00,VWS V14.01,2013-03-14 21:34:00,
2013-03-14 16:35:00,72.5,58.8,30.23,SE,136,12.2,16.2,62,0.00,,---,0.00,VWS V14.01,2013-03-14 21:35:00,
2013-03-14 16:39:00,72.5,59.2,30.23,SE,130,13.2,13.2,63,0.00,,---,0.00,VWS V14.01,2013-03-14 21:39:00,
2013-03-14 16:40:00,72.5,59.2,30.23,ESE,114,11.2,17.2,63,0.00,,---,0.00,VWS V14.01,2013-03-14 21:40:00,
2013-03-14 16:44:00,72.1,58.8,30.23,ESE,109,11.2,14.2,63,0.00,,---,0.00,VWS V14.01,2013-03-14 21:44:00,
2013-03-14 16:45:00,72.1,58.8,30.22,SSE,150,11.2,14.2,63,0.00,,---,0.00,VWS V14.01,2013-03-14 21:45:00,
2013-03-14 16:49:00,71.8,59.0,30.22,SE,136,8.2,17.2,64,0.00,,---,0.00,VWS V14.01,2013-03-14 21:49:00,
2013-03-14 16:50:00,72.0,60.0,30.22,SE,137,5.2,17.2,66,0.00,,---,0.00,VWS V14.01,2013-03-14 21:50:00,
2013-03-14 16:54:00,72.0,59.6,30.22,SE,127,8.2,14.2,65,0.00,,---,0.00,VWS V14.01,2013-03-14 21:54:00,
2013-03-14 16:55:00,72.1,59.7,30.22,SE,140,15.2,16.2,65,0.00,,---,0.00,VWS V14.01,2013-03-14 21:55:00,
2013-03-14 16:59:00,71.8,59.0,30.22,ESE,107,10.2,15.2,64,0.00,,---,0.00,VWS V14.01,2013-03-14 21:59:00,
2013-03-14 17:00:00,71.8,59.4,30.22,ESE,116,12.2,15.2,65,0.00,,---,0.00,VWS V14.01,2013-03-14 22:00:00,
2013-03-14 17:04:00,72.1,59.7,30.22,SSE,149,11.2,13.2,65,0.00,,---,0.00,VWS V14.01,2013-03-14 22:04:00,
2013-03-14 17:05:00,71.8,59.4,30.22,SE,138,6.2,16.2,65,0.00,,---,0.00,VWS V14.01,2013-03-14 22:05:00,
2013-03-14 17:09:00,72.1,60.1,30.22,SE,128,5.2,12.2,66,0.00,,---,0.00,VWS V14.01,2013-03-14 22:09:00,
2013-03-14 17:10:00,72.3,59.9,30.22,SE,130,7.2,12.2,65,0.00,,---,0.00,VWS V14.01,2013-03-14 22:10:00,
2013-03-14 17:14:00,72.1,59.7,30.22,SE,125,12.2,17.2,65,0.00,,---,0.00,VWS V14.01,2013-03-14 22:14:00,
2013-03-14 17:15:00,71.8,59.0,30.21,SE,137,8.2,17.2,64,0.00,,---,0.00,VWS V14.01,2013-03-14 22:15:00,
2013-03-14 17:19:00,71.8,59.4,30.21,ESE,109,9.2,13.2,65,0.00,,---,0.00,VWS V14.01,2013-03-14 22:19:00,
2013-03-14 17:20:00,71.8,59.0,30.21,East,100,5.2,15.2,64,0.00,,---,0.00,VWS V14.01,2013-03-14 22:20:00,
2013-03-14 17:24:00,72.0,59.6,30.21,ESE,121,6.2,13.2,65,0.00,,---,0.00,VWS V14.01,2013-03-14 22:24:00,
2013-03-14 17:25:00,72.1,59.3,30.21,SE,124,14.2,15.2,64,0.00,,---,0.00,VWS V14.01,2013-03-14 22:25:00,
2013-03-14 17:29:00,72.0,59.2,30.21,ESE,119,7.2,15.2,64,0.00,,---,0.00,VWS V14.01,2013-03-14 22:29:00,
2013-03-14 17:30:00,71.8,59.0,30.21,SE,140,13.2,15.2,64,0.00,,---,0.00,VWS V14.01,2013-03-14 22:30:00,
2013-03-14 17:34:00,71.5,59.6,30.21,ESE,107,8.2,19.2,66,0.00,,---,0.00,VWS V14.01,2013-03-14 22:34:00,
2013-03-14 17:35:00,71.5,59.6,30.21,ESE,116,6.2,19.2,66,0.00,,---,0.00,VWS V14.01,2013-03-14 22:35:00,
2013-03-14 17:39:00,71.3,58.9,30.21,ESE,107,12.2,15.2,65,0.00,,---,0.00,VWS V14.01,2013-03-14 22:39:00,
2013-03-14 17:40:00,71.1,59.6,30.21,SE,140,9.2,18.2,67,0.00,,---,0.00,VWS V14.01,2013-03-14 22:40:00,
2013-03-14 17:44:00,71.3,59.4,30.21,ESE,119,13.2,15.2,66,0.00,,---,0.00,VWS V14.01,2013-03-14 22:44:00,
2013-03-14 17:45:00,71.1,58.8,30.21,SE,132,14.2,15.2,65,0.00,,---,0.00,VWS V14.01,2013-03-14 22:45:00,
2013-03-14 17:49:00,71.1,59.6,30.21,East,101,13.2,16.2,67,0.00,,---,0.00,VWS V14.01,2013-03-14 22:49:00,
2013-03-14 17:50:00,71.1,59.2,30.21,East,88,7.2,16.2,66,0.00,,---,0.00,VWS V14.01,2013-03-14 22:50:00,
2013-03-14 17:54:00,71.1,59.2,30.21,ESE,119,8.2,13.2,66,0.00,,---,0.00,VWS V14.01,2013-03-14 22:54:00,
2013-03-14 17:55:00,71.1,59.2,30.21,SE,136,6.2,13.2,66,0.00,,---,0.00,VWS V14.01,2013-03-14 22:55:00,
2013-03-14 17:59:00,70.9,59.0,30.21,ESE,106,11.2,15.2,66,0.00,,---,0.00,VWS V14.01,2013-03-14 22:59:00,
2013-03-14 18:00:00,70.8,58.9,30.21,SE,140,7.2,19.2,66,0.00,,---,0.00,VWS V14.01,2013-03-14 23:00:00,
2013-03-14 18:04:00,70.6,58.7,30.21,ESE,104,14.2,14.2,66,0.00,,---,0.00,VWS V14.01,2013-03-14 23:04:00,
2013-03-14 18:05:00,70.4,58.5,30.21,ESE,115,6.2,14.2,66,0.00,,---,0.00,VWS V14.01,2013-03-14 23:05:00,
2013-03-14 18:09:00,70.6,58.7,30.21,ESE,106,6.2,16.2,66,0.00,,---,0.00,VWS V14.01,2013-03-14 23:09:00,
2013-03-14 18:10:00,70.6,58.7,30.21,ESE,109,8.2,16.2,66,0.00,,---,0.00,VWS V14.01,2013-03-14 23:10:00,
2013-03-14 18:14:00,70.4,58.9,30.21,East,91,10.2,16.2,67,0.00,,---,0.00,VWS V14.01,2013-03-14 23:14:00,
2013-03-14 18:15:00,70.4,58.9,30.20,SE,136,14.2,16.2,67,0.00,,---,0.00,VWS V14.01,2013-03-14 23:15:00,
2013-03-14 18:19:00,70.4,58.9,30.20,ESE,112,11.2,14.2,67,0.00,,---,0.00,VWS V14.01,2013-03-14 23:19:00,
2013-03-14 18:20:00,70.4,58.9,30.20,East,91,10.2,14.2,67,0.00,,---,0.00,VWS V14.01,2013-03-14 23:20:00,
2013-03-14 18:24:00,70.3,59.2,30.20,ESE,121,4.2,13.2,68,0.00,,---,0.00,VWS V14.01,2013-03-14 23:24:00,
2013-03-14 18:25:00,70.3,59.2,30.20,ESE,120,15.2,15.2,68,0.00,,---,0.00,VWS V14.01,2013-03-14 23:25:00,
2013-03-14 18:29:00,69.9,59.3,30.20,SE,126,17.2,17.2,69,0.00,,---,0.00,VWS V14.01,2013-03-14 23:29:00,
2013-03-14 18:30:00,69.9,58.9,30.20,SE,127,13.2,17.2,68,0.00,,---,0.00,VWS V14.01,2013-03-14 23:30:00,
2013-03-14 18:34:00,69.8,58.8,30.20,ESE,117,13.2,14.2,68,0.00,,---,0.00,VWS V14.01,2013-03-14 23:34:00,
2013-03-14 18:35:00,69.8,58.8,30.20,ESE,113,12.2,15.2,68,0.00,,---,0.00,VWS V14.01,2013-03-14 23:35:00,
2013-03-14 18:39:00,69.6,59.0,30.20,East,101,6.2,17.2,69,0.00,,---,0.00,VWS V14.01,2013-03-14 23:39:00,
2013-03-14 18:40:00,69.6,59.0,30.20,ESE,111,6.2,17.2,69,0.00,,---,0.00,VWS V14.01,2013-03-14 23:40:00,
2013-03-14 18:44:00,69.6,59.0,30.20,ESE,112,13.2,14.2,69,0.00,,---,0.00,VWS V14.01,2013-03-14 23:44:00,
2013-03-14 18:45:00,69.4,58.4,30.20,ESE,111,9.2,16.2,68,0.00,,---,0.00,VWS V14.01,2013-03-14 23:45:00,
2013-03-14 18:49:00,69.3,59.1,30.20,East,87,5.2,14.2,70,0.00,,---,0.00,VWS V14.01,2013-03-14 23:49:00,
2013-03-14 18:50:00,69.3,58.7,30.20,SE,133,6.2,14.2,69,0.00,,---,0.00,VWS V14.01,2013-03-14 23:50:00,
2013-03-14 18:54:00,69.3,59.1,30.20,ESE,109,7.2,11.2,70,0.00,,---,0.00,VWS V14.01,2013-03-14 23:54:00,
2013-03-14 18:55:00,69.3,58.7,30.20,ESE,110,7.2,11.2,69,0.00,,---,0.00,VWS V14.01,2013-03-14 23:55:00,
2013-03-14 18:59:00,69.1,58.1,30.20,ESE,113,5.2,14.2,68,0.00,,---,0.00,VWS V14.01,2013-03-14 23:59:00,
2013-03-14 19:00:00,69.1,58.5,30.20,ESE,117,10.2,14.2,69,0.00,,---,0.00,VWS V14.01,2013-03-15 00:00:00,
2013-03-14 19:04:00,69.1,58.9,30.20,SSE,159,8.2,13.2,70,0.00,,---,0.00,VWS V14.01,2013-03-15 00:04:00,
2013-03-14 19:05:00,68.9,58.3,30.20,ESE,116,12.2,14.2,69,0.00,,---,0.00,VWS V14.01,2013-03-15 00:05:00,
2013-03-14 19:09:00,68.9,58.7,30.20,SE,140,12.2,14.2,70,0.00,,---,0.00,VWS V14.01,2013-03-15 00:09:00,
2013-03-14 19:10:00,68.6,58.4,30.20,ESE,118,12.2,14.2,70,0.00,,---,0.00,VWS V14.01,2013-03-15 00:10:00,
2013-03-14 19:14:00,68.4,58.2,30.20,ESE,108,6.2,13.2,70,0.00,,---,0.00,VWS V14.01,2013-03-15 00:14:00,
2013-03-14 19:15:00,68.4,58.6,30.20,ESE,111,6.2,13.2,71,0.00,,---,0.00,VWS V14.01,2013-03-15 00:15:00,
2013-03-14 19:19:00,68.3,58.5,30.19,SE,142,12.2,13.2,71,0.00,,---,0.00,VWS V14.01,2013-03-15 00:19:00,
2013-03-14 19:20:00,68.3,58.5,30.20,ESE,112,14.2,14.2,71,0.00,,---,0.00,VWS V14.01,2013-03-15 00:20:00,
2013-03-14 19:24:00,68.1,58.7,30.19,ESE,105,9.2,14.2,72,0.00,,---,0.00,VWS V14.01,2013-03-15 00:24:00,
2013-03-14 19:25:00,67.9,58.5,30.20,SE,135,13.2,14.2,72,0.00,,---,0.00,VWS V14.01,2013-03-15 00:25:00,
2013-03-14 19:29:00,67.8,58.5,30.19,SE,135,6.2,13.2,72,0.00,,---,0.00,VWS V14.01,2013-03-15 00:29:00,
2013-03-14 19:30:00,67.8,58.8,30.20,ESE,114,8.2,13.2,73,0.00,,---,0.00,VWS V14.01,2013-03-15 00:30:00,
2013-03-14 19:34:00,67.6,58.7,30.20,ESE,107,6.2,13.2,73,0.00,,---,0.00,VWS V14.01,2013-03-15 00:34:00,
2013-03-14 19:35:00,67.6,58.7,30.20,SE,130,4.2,13.2,73,0.00,,---,0.00,VWS V14.01,2013-03-15 00:35:00,
2013-03-14 19:39:00,67.4,58.8,30.20,SSE,150,5.2,12.2,74,0.00,,---,0.00,VWS V14.01,2013-03-15 00:39:00,
2013-03-14 19:40:00,67.3,58.4,30.20,SE,130,5.2,12.2,73,0.00,,---,0.00,VWS V14.01,2013-03-15 00:40:00,
2013-03-14 19:44:00,67.1,58.5,30.20,ESE,123,5.2,12.2,74,0.00,,---,0.00,VWS V14.01,2013-03-15 00:44:00,
2013-03-14 19:45:00,67.1,58.5,30.20,SE,132,8.2,12.2,74,0.00,,---,0.00,VWS V14.01,2013-03-15 00:45:00,
2013-03-14 19:49:00,67.1,58.5,30.20,ESE,119,8.2,10.2,74,0.00,,---,0.00,VWS V14.01,2013-03-15 00:49:00,
2013-03-14 19:50:00,66.9,58.3,30.20,ESE,104,12.2,12.2,74,0.00,,---,0.00,VWS V14.01,2013-03-15 00:50:00,
2013-03-14 19:54:00,66.9,58.3,30.20,ESE,102,7.2,12.2,74,0.00,,---,0.00,VWS V14.01,2013-03-15 00:54:00,
2013-03-14 19:55:00,66.9,58.7,30.20,ESE,121,7.2,12.2,75,0.00,,---,0.00,VWS V14.01,2013-03-15 00:55:00,
2013-03-14 19:59:00,66.8,58.6,30.20,SE,125,6.2,11.2,75,0.00,,---,0.00,VWS V14.01,2013-03-15 00:59:00,
2013-03-14 20:00:00,66.8,58.6,30.20,ESE,119,11.2,11.2,75,0.00,,---,0.00,VWS V14.01,2013-03-15 01:00:00,
2013-03-14 20:04:00,66.8,58.6,30.20,SE,134,7.2,12.2,75,0.00,,---,0.00,VWS V14.01,2013-03-15 01:04:00,
2013-03-14 20:05:00,66.6,58.4,30.20,SE,136,6.2,12.2,75,0.00,,---,0.00,VWS V14.01,2013-03-15 01:05:00,
2013-03-14 20:09:00,66.6,58.4,30.20,ESE,110,5.2,12.2,75,0.00,,---,0.00,VWS V14.01,2013-03-15 01:09:00,
2013-03-14 20:10:00,66.6,58.4,30.20,SE,137,8.2,12.2,75,0.00,,---,0.00,VWS V14.01,2013-03-15 01:10:00,
2013-03-14 20:14:00,66.6,58.4,30.20,SE,130,10.2,10.2,75,0.00,,---,0.00,VWS V14.01,2013-03-15 01:14:00,
2013-03-14 20:15:00,66.6,58.4,30.20,ESE,109,4.2,10.2,75,0.00,,---,0.00,VWS V14.01,2013-03-15 01:15:00,
2013-03-14 20:19:00,66.6,58.8,30.20,SE,132,8.2,14.2,76,0.00,,---,0.00,VWS V14.01,2013-03-15 01:19:00,
2013-03-14 20:20:00,66.6,58.8,30.20,SE,130,12.2,14.2,76,0.00,,---,0.00,VWS V14.01,2013-03-15 01:20:00,
2013-03-14 20:24:00,66.4,58.6,30.20,SE,132,4.2,12.2,76,0.00,,---,0.00,VWS V14.01,2013-03-15 01:24:00,
2013-03-14 20:25:00,66.4,58.6,30.20,ESE,117,5.2,12.2,76,0.00,,---,0.00,VWS V14.01,2013-03-15 01:25:00,
2013-03-14 20:29:00,66.4,58.6,30.20,ESE,113,13.2,13.2,76,0.00,,---,0.00,VWS V14.01,2013-03-15 01:29:00,
2013-03-14 20:30:00,66.4,58.6,30.21,ESE,111,8.2,13.2,76,0.00,,---,0.00,VWS V14.01,2013-03-15 01:30:00,
2013-03-14 20:34:00,66.4,58.6,30.21,SSE,152,6.2,12.2,76,0.00,,---,0.00,VWS V14.01,2013-03-15 01:34:00,
2013-03-14 20:35:00,66.4,58.6,30.21,SE,125,5.2,12.2,76,0.00,,---,0.00,VWS V14.01,2013-03-15 01:35:00,
2013-03-14 20:39:00,66.4,58.6,30.21,SE,127,5.2,12.2,76,0.00,,---,0.00,VWS V14.01,2013-03-15 01:39:00,
2013-03-14 20:40:00,66.4,58.6,30.21,SE,130,7.2,12.2,76,0.00,,---,0.00,VWS V14.01,2013-03-15 01:40:00,
2013-03-14 20:44:00,66.4,58.6,30.21,ESE,108,5.2,12.2,76,0.00,,---,0.00,VWS V14.01,2013-03-15 01:44:00,
2013-03-14 20:45:00,66.4,58.6,30.21,SE,128,5.2,14.2,76,0.00,,---,0.00,VWS V14.01,2013-03-15 01:45:00,
2013-03-14 20:49:00,66.4,58.6,30.21,SE,128,6.2,10.2,76,0.00,,---,0.00,VWS V14.01,2013-03-15 01:49:00,
2013-03-14 20:50:00,66.3,58.5,30.21,ESE,119,8.2,11.2,76,0.00,,---,0.00,VWS V14.01,2013-03-15 01:50:00,
2013-03-14 20:54:00,66.3,58.5,30.21,ESE,108,7.2,12.2,76,0.00,,---,0.00,VWS V14.01,2013-03-15 01:54:00,
2013-03-14 20:55:00,66.3,58.5,30.21,SE,133,9.2,15.2,76,0.00,,---,0.00,VWS V14.01,2013-03-15 01:55:00,
2013-03-14 20:59:00,66.3,58.5,30.21,SE,126,4.2,11.2,76,0.00,,---,0.00,VWS V14.01,2013-03-15 01:59:00,
2013-03-14 21:00:00,66.3,58.5,30.21,SE,126,6.2,12.2,76,0.00,,---,0.00,VWS V14.01,2013-03-15 02:00:00,
2013-03-14 21:04:00,66.3,58.5,30.21,ESE,121,6.2,15.2,76,0.00,,---,0.00,VWS V14.01,2013-03-15 02:04:00,
2013-03-14 21:05:00,66.3,58.5,30.21,ESE,119,5.2,15.2,76,0.00,,---,0.00,VWS V14.01,2013-03-15 02:05:00,
2013-03-14 21:09:00,66.3,58.5,30.21,ESE,114,6.2,12.2,76,0.00,,---,0.00,VWS V14.01,2013-03-15 02:09:00,
2013-03-14 21:10:00,66.3,58.5,30.21,ESE,111,8.2,13.2,76,0.00,,---,0.00,VWS V14.01,2013-03-15 02:10:00,
2013-03-14 21:14:00,66.3,58.9,30.21,SE,125,6.2,12.2,77,0.00,,---,0.00,VWS V14.01,2013-03-15 02:14:00,
2013-03-14 21:15:00,66.3,58.9,30.21,ESE,117,5.2,12.2,77,0.00,,---,0.00,VWS V14.01,2013-03-15 02:15:00,
2013-03-14 21:19:00,66.3,58.9,30.21,SE,126,5.2,12.2,77,0.00,,---,0.00,VWS V14.01,2013-03-15 02:19:00,
2013-03-14 21:20:00,66.3,58.9,30.21,SSE,147,9.2,13.2,77,0.00,,---,0.00,VWS V14.01,2013-03-15 02:20:00,
2013-03-14 21:24:00,66.1,58.7,30.21,SSE,154,14.2,14.2,77,0.00,,---,0.00,VWS V14.01,2013-03-15 02:24:00,
2013-03-14 21:25:00,66.1,58.3,30.21,SE,140,5.2,14.2,76,0.00,,---,0.00,VWS V14.01,2013-03-15 02:25:00,
2013-03-14 21:29:00,66.1,58.3,30.21,ESE,117,6.2,13.2,76,0.00,,---,0.00,VWS V14.01,2013-03-15 02:29:00,
2013-03-14 21:30:00,66.1,58.3,30.21,SSE,154,7.2,14.2,76,0.00,,---,0.00,VWS V14.01,2013-03-15 02:30:00,
2013-03-14 21:34:00,66.1,58.3,30.21,SE,129,6.2,12.2,76,0.00,,---,0.00,VWS V14.01,2013-03-15 02:34:00,
2013-03-14 21:35:00,66.1,58.3,30.21,SSE,151,6.2,12.2,76,0.00,,---,0.00,VWS V14.01,2013-03-15 02:35:00,
2013-03-14 21:39:00,66.1,58.3,30.21,SE,131,7.2,12.2,76,0.00,,---,0.00,VWS V14.01,2013-03-15 02:39:00,
2013-03-14 21:40:00,66.1,58.3,30.21,SE,134,6.2,13.2,76,0.00,,---,0.00,VWS V14.01,2013-03-15 02:40:00,
2013-03-14 21:44:00,66.1,58.3,30.21,SE,143,9.2,14.2,76,0.00,,---,0.00,VWS V14.01,2013-03-15 02:44:00,
2013-03-14 21:45:00,66.1,58.3,30.21,ESE,112,7.2,14.2,76,0.00,,---,0.00,VWS V14.01,2013-03-15 02:45:00,
2013-03-14 21:49:00,66.0,58.2,30.21,SE,140,11.2,12.2,76,0.00,,---,0.00,VWS V14.01,2013-03-15 02:49:00,
2013-03-14 21:50:00,66.0,58.2,30.21,SSE,148,7.2,13.2,76,0.00,,---,0.00,VWS V14.01,2013-03-15 02:50:00,
2013-03-14 21:54:00,66.0,58.2,30.21,SE,143,12.2,16.2,76,0.00,,---,0.00,VWS V14.01,2013-03-15 02:54:00,
2013-03-14 21:55:00,66.0,58.2,30.21,SE,139,11.2,16.2,76,0.00,,---,0.00,VWS V14.01,2013-03-15 02:55:00,
2013-03-14 21:59:00,66.0,58.2,30.21,SE,138,11.2,11.2,76,0.00,,---,0.00,VWS V14.01,2013-03-15 02:59:00,
2013-03-14 22:00:00,66.0,58.2,30.21,SE,134,8.2,11.2,76,0.00,,---,0.00,VWS V14.01,2013-03-15 03:00:00,
2013-03-14 22:04:00,65.8,58.0,30.21,SE,130,8.2,12.2,76,0.00,,---,0.00,VWS V14.01,2013-03-15 03:04:00,
2013-03-14 22:05:00,65.8,58.4,30.21,SSE,149,7.2,14.2,77,0.00,,---,0.00,VWS V14.01,2013-03-15 03:05:00,
2013-03-14 22:09:00,65.8,58.4,30.21,SE,136,6.2,12.2,77,0.00,,---,0.00,VWS V14.01,2013-03-15 03:09:00,
2013-03-14 22:10:00,65.8,58.4,30.21,SSE,155,5.2,12.2,77,0.00,,---,0.00,VWS V14.01,2013-03-15 03:10:00,
2013-03-14 22:14:00,65.8,58.4,30.21,ESE,118,5.2,11.2,77,0.00,,---,0.00,VWS V14.01,2013-03-15 03:14:00,
2013-03-14 22:15:00,65.8,58.4,30.22,SSE,147,8.2,12.2,77,0.00,,---,0.00,VWS V14.01,2013-03-15 03:15:00,
2013-03-14 22:19:00,65.8,58.4,30.22,SE,136,11.2,15.2,77,0.00,,---,0.00,VWS V14.01,2013-03-15 03:19:00,
2013-03-14 22:20:00,65.8,58.4,30.22,SE,132,6.2,15.2,77,0.00,,---,0.00,VWS V14.01,2013-03-15 03:20:00,
2013-03-14 22:24:00,65.8,58.4,30.22,SE,134,7.2,12.2,77,0.00,,---,0.00,VWS V14.01,2013-03-15 03:24:00,
2013-03-14 22:25:00,65.8,58.4,30.22,SE,128,6.2,13.2,77,0.00,,---,0.00,VWS V14.01,2013-03-15 03:25:00,
2013-03-14 22:29:00,65.6,58.2,30.22,SE,140,10.2,13.2,77,0.00,,---,0.00,VWS V14.01,2013-03-15 03:29:00,
2013-03-14 22:30:00,65.6,58.2,30.22,SSE,166,6.2,13.2,77,0.00,,---,0.00,VWS V14.01,2013-03-15 03:30:00,
2013-03-14 22:34:00,65.6,58.2,30.22,SE,138,8.2,13.2,77,0.00,,---,0.00,VWS V14.01,2013-03-15 03:34:00,
2013-03-14 22:35:00,65.6,58.2,30.22,SE,135,11.2,13.2,77,0.00,,---,0.00,VWS V14.01,2013-03-15 03:35:00,
2013-03-14 22:39:00,65.6,58.2,30.22,SSE,152,5.2,13.2,77,0.00,,---,0.00,VWS V14.01,2013-03-15 03:39:00,
2013-03-14 22:40:00,65.6,58.2,30.22,ESE,122,10.2,13.2,77,0.00,,---,0.00,VWS V14.01,2013-03-15 03:40:00,
2013-03-14 22:44:00,65.6,58.2,30.22,SSE,160,10.2,13.2,77,0.00,,---,0.00,VWS V14.01,2013-03-15 03:44:00,
2013-03-14 22:45:00,65.5,58.1,30.22,SE,138,12.2,13.2,77,0.00,,---,0.00,VWS V14.01,2013-03-15 03:45:00,
2013-03-14 22:49:00,65.5,58.1,30.22,SE,140,5.2,13.2,77,0.00,,---,0.00,VWS V14.01,2013-03-15 03:49:00,
2013-03-14 22:50:00,65.5,58.5,30.22,ESE,118,3.2,13.2,78,0.00,,---,0.00,VWS V14.01,2013-03-15 03:50:00,
2013-03-14 22:54:00,65.5,58.5,30.22,SE,131,5.2,10.2,78,0.00,,---,0.00,VWS V14.01,2013-03-15 03:54:00,
2013-03-14 22:55:00,65.3,58.6,30.22,SE,140,7.2,12.2,79,0.00,,---,0.00,VWS V14.01,2013-03-15 03:55:00,
2013-03-14 22:59:00,65.3,58.3,30.22,SE,134,6.2,15.2,78,0.00,,---,0.00,VWS V14.01,2013-03-15 03:59:00,
2013-03-14 23:00:00,65.3,58.3,30.22,SE,142,6.2,15.2,78,0.00,,---,0.00,VWS V14.01,2013-03-15 04:00:00,
2013-03-14 23:05:00,65.3,58.6,30.21,SE,132,5.2,12.2,79,0.00,,---,0.00,VWS V14.01,2013-03-15 04:05:00,
2013-03-14 23:10:00,65.2,58.5,30.21,SSE,154,5.2,12.2,79,0.00,,---,0.00,VWS V14.01,2013-03-15 04:10:00,
2013-03-14 23:15:00,65.2,58.5,30.21,ESE,117,11.2,13.2,79,0.00,,---,0.00,VWS V14.01,2013-03-15 04:15:00,
2013-03-14 23:20:00,65.2,58.5,30.22,SE,140,11.2,12.2,79,0.00,,---,0.00,VWS V14.01,2013-03-15 04:20:00,
2013-03-14 23:25:00,65.2,58.5,30.22,SE,142,8.2,11.2,79,0.00,,---,0.00,VWS V14.01,2013-03-15 04:25:00,
2013-03-14 23:30:00,65.2,58.5,30.22,ESE,115,6.2,12.2,79,0.00,,---,0.00,VWS V14.01,2013-03-15 04:30:00,
2013-03-14 23:35:00,65.0,58.7,30.21,SSE,161,7.2,11.2,80,0.00,,---,0.00,VWS V14.01,2013-03-15 04:35:00,
2013-03-14 23:40:00,65.2,58.5,30.21,SE,132,5.2,11.2,79,0.00,,---,0.00,VWS V14.01,2013-03-15 04:40:00,
2013-03-14 23:45:00,65.2,58.5,30.21,SSE,159,6.2,11.2,79,0.00,,---,0.00,VWS V14.01,2013-03-15 04:45:00,
2013-03-14 23:50:00,65.0,58.3,30.21,SSE,164,4.2,11.2,79,0.00,,---,0.00,VWS V14.01,2013-03-15 04:50:00,
2013-03-14 23:55:00,65.0,58.7,30.21,SSE,157,7.2,10.2,80,0.00,,---,0.00,VWS V14.01,2013-03-15 04:55:00,